Weather History for KNID - October, 2013

Change the Weather History Date:

Monday, October 28, 2013

  Actual Average Record
Temperature  
Mean Temperature 56 °F -  
Max Temperature 61 °F 70 °F 91 °F (2003)
Min Temperature 48 °F 44 °F 33 °F (2011)
Degree Days  
Heating Degree Days 10    
Growing Degree Days 6 (Base 50)    
Moisture  
Dew Point 32 °F    
Average Humidity 43    
Maximum Humidity 66    
Minimum Humidity 28    
Precipitation  
Precipitation 0.00 in - - ()
Sea Level Pressure  
Sea Level Pressure 29.67 in    
Wind  
Wind Speed 24 mph (SW)    
Max Wind Speed 32 mph    
Max Gust Speed 39 mph    
Visibility 10 miles    
Events      
Averages and records for this station are not official NWS values.
T = Trace of Precipitation, MM = Missing Value Source: NWS Daily Summary

Daily Weather History Graph

Daily Weather History Graph

Search for Another Location

Airport or City:

Trip Planner

Search our weather history database for the weather conditions in past years. The results will help you decide how hot, cold, wet, or windy it might be!

Date:

Astronomy

Oct. 28, 2013 Rise Set
Actual Time 7:09 AM PDT 5:59 PM PDT
Civil Twilight 6:43 AM PDT 6:25 PM PDT
Nautical Twilight 6:13 AM PDT 6:55 PM PDT
Astronomical Twilight 5:43 AM PDT 7:25 PM PDT
Moon 1:18 AM PDT (10/28) 2:33 PM PDT (10/28)
Length of Visible Light 11h 42m
Length of Day
10h 49m
Waning Crescent, 33% of the Moon is Illuminated
Oct 28
Waning Crescent
Nov 3
New
Nov 9
First Quarter
Nov 17
Full
Nov 25
Last Quarter

Hourly Weather History & Observations

Time (PDT) Temp. Dew Point Humidity Pressure Visibility Wind Dir Wind Speed Gust Speed Precip Events Conditions
12:56 AM 63.0 °F 34.0 °F 34% 29.50 in 10.0 mi SSW 27.6 mph 33.4 mph N/A   Clear
1:56 AM 60.1 °F 27.0 °F 28% 29.49 in 10.0 mi South 32.2 mph 39.1 mph N/A   Clear
2:56 AM 55.9 °F 28.0 °F 34% 29.51 in 10.0 mi South 27.6 mph 39.1 mph N/A   Clear
3:39 AM 57.2 °F 26.6 °F 31% 29.56 in 10.0 mi WSW 19.6 mph 25.3 mph N/A   Clear
3:56 AM 57.0 °F 28.0 °F 33% 29.52 in 10.0 mi West 23.0 mph 29.9 mph N/A   Clear
4:56 AM 53.1 °F 30.0 °F 41% 29.55 in 10.0 mi West 23.0 mph 32.2 mph N/A   Clear
5:56 AM 53.1 °F 30.0 °F 41% 29.60 in 10.0 mi WSW 25.3 mph 33.4 mph N/A   Clear
6:56 AM 52.0 °F 30.0 °F 43% 29.62 in 10.0 mi SW 21.9 mph 32.2 mph N/A   Partly Cloudy
7:56 AM 52.0 °F 30.0 °F 43% 29.66 in 10.0 mi SW 21.9 mph 28.8 mph N/A   Partly Cloudy
8:56 AM 53.1 °F 28.9 °F 40% 29.69 in 10.0 mi WSW 25.3 mph 32.2 mph N/A   Partly Cloudy
9:56 AM 55.9 °F 30.0 °F 37% 29.70 in 10.0 mi SW 25.3 mph 32.2 mph N/A   Scattered Clouds
10:56 AM 59.0 °F 28.0 °F 31% 29.70 in 10.0 mi WSW 23.0 mph 34.5 mph N/A   Scattered Clouds
11:56 AM 59.0 °F 33.1 °F 38% 29.70 in 10.0 mi SSW 19.6 mph 28.8 mph N/A   Scattered Clouds
12:56 PM 57.0 °F 32.0 °F 39% 29.71 in 10.0 mi South 21.9 mph - N/A   Scattered Clouds
1:56 PM 59.0 °F 34.0 °F 39% 29.70 in 10.0 mi SSW 19.6 mph 26.5 mph N/A   Scattered Clouds
2:56 PM 59.0 °F 33.1 °F 38% 29.70 in 10.0 mi SW 24.2 mph 31.1 mph N/A   Scattered Clouds
3:56 PM 57.0 °F 32.0 °F 39% 29.69 in 10.0 mi SSW 24.2 mph - N/A   Partly Cloudy
4:56 PM 55.9 °F 35.1 °F 45% 29.70 in 10.0 mi SSW 21.9 mph 27.6 mph N/A   Mostly Cloudy
5:56 PM 54.0 °F 36.0 °F 51% 29.72 in 10.0 mi SSW 13.8 mph - N/A   Mostly Cloudy
6:56 PM 52.0 °F 35.1 °F 53% 29.73 in 10.0 mi SSW 20.7 mph 28.8 mph N/A   Partly Cloudy
7:56 PM 52.0 °F 34.0 °F 50% 29.75 in 10.0 mi SSW 17.3 mph 31.1 mph N/A   Scattered Clouds
8:56 PM 50.0 °F 36.0 °F 59% 29.77 in 10.0 mi South 17.3 mph 28.8 mph N/A   Clear
9:56 PM 50.0 °F 36.0 °F 59% 29.80 in 10.0 mi SSW 15.0 mph - N/A   Clear
10:56 PM 48.9 °F 37.9 °F 66% 29.81 in 10.0 mi SSW 16.1 mph - N/A   Clear
11:56 PM 48.9 °F 37.9 °F 66% 29.82 in 10.0 mi South 17.3 mph - N/A   Clear